Location: Riverton
(43.0250°N, 108.3790°W)
Time: 11:25:44
(UTC-06:00)

Amateur Radio Satellites - All Passes

Search period start: 01 May 2016 10:55
Search period end: 02 May 2016 10:55
Location: Riverton, 43.0250°N, 108.3790°W

Satellite Date Start Highest point End Downlink Frequencies (MHz)
Time Altitude Azimuth
UWE-3 01 May 10:56:53 11:01:03 48° 288° (WNW) 11:05:04 435.000/436.395/437.385
CUBEBUG 2 01 May 11:01:01 11:04:54 32° 291° (WNW) 11:08:39 437.445
CUTE 1.7 + AOD 2 01 May 11:04:43 11:05:49 11° 299° (WNW) 11:06:55 437.475
ANTELSAT 01 May 11:09:32 11:14:06 54° 260° (W) 11:18:38 437.575/2403.000
HUMSAT D 01 May 11:13:36 11:17:30 42° 99° (E) 11:21:22 437.325/437.525
HO-68 01 May 11:14:33 11:20:13 26° 302° (WNW) 11:25:52 435.675
QB50P2 01 May 11:25:18 11:29:25 48° 72° (ENE) 11:33:34 145.880/145.840
AIST 1 01 May 11:26:13 11:29:45 23° 72° (ENE) 11:33:17
DUCHIFAT 1 01 May 11:27:24 11:31:27 43° 71° (ENE) 11:35:31 145.980
POLYITAN 1 01 May 11:27:24 11:31:33 49° 72° (ENE) 11:35:43 437.675
POPSAT HIP 1 01 May 11:30:27 11:34:37 51° 73° (ENE) 11:38:47 437.405
ZACube-1 01 May 11:31:47 11:35:30 30° 291° (WNW) 11:39:08 437.345
QB50P1 01 May 11:33:49 11:38:00 57° 73° (ENE) 11:42:14 145.935-145.965
VELOX 1 01 May 11:46:12 11:48:34 14° 91° (E) 11:50:54 145.980
JAS-2 01 May 11:46:15 11:49:54 16° 53° (NE) 11:53:46 435.910
DX 1 01 May 11:49:13 11:51:15 13° 90° (E) 11:53:17 434.975-435.025
ISS 01 May 11:49:33 11:51:52 18° 0° (N) 11:54:11 145.825
UKube-1 01 May 11:58:43 12:00:51 13° 91° (E) 12:02:57 .
DELFI C3 01 May 12:04:13 12:07:18 22° 293° (WNW) 12:10:23 145.870
UNISAT 6 01 May 12:06:00 12:08:48 16° 269° (W) 12:11:34 437.425
Cosmos 2499 01 May 12:06:56 12:13:47 34° 71° (ENE) 12:21:04 435.465 / 435.565
PHONESAT 2.4 01 May 12:09:14 12:12:09 36° 166° (SSE) 12:15:06 2401.200-2431.200
NANOSAT C BR1 01 May 12:09:36 12:13:49 60° 259° (W) 12:18:05 145.865
50 SAT 01 May 12:14:36 12:17:50 29° 97° (E) 12:21:03 437.505
BUGSAT 1 01 May 12:16:05 12:20:18 74° 74° (ENE) 12:24:34 437.445
AISAT 01 May 12:16:47 12:20:46 31° 96° (E) 12:24:43 437.250
Oscar 11 01 May 12:20:24 12:20:34 10° 300° (WNW) 12:20:44 145.826/435.025
TIGRISAT 01 May 12:26:12 12:27:06 10° 272° (W) 12:28:02 435.000
ESTCUBE 1 01 May 12:28:19 12:32:47 54° 100° (E) 12:37:13 437.505/2401.250
SPROUT 01 May 12:31:14 12:33:53 16° 91° (E) 12:36:30 437.525
Oscar 19 01 May 12:33:38 12:37:18 20° 62° (ENE) 12:40:58 437.125/150
HUMSAT D 01 May 12:50:10 12:52:49 17° 295° (WNW) 12:55:27 437.325/437.525
GONETS M04 01 May 12:50:48 12:59:35 79° 265° (W) 13:08:16
CUBEBUG 1 01 May 12:57:55 13:02:23 81° 102° (ESE) 13:06:50 437.445
QB50P2 01 May 13:02:53 13:05:29 16° 268° (W) 13:08:07 145.880/145.840
AIST 1 01 May 13:03:28 13:07:24 32° 270° (W) 13:11:19
DUCHIFAT 1 01 May 13:04:32 13:07:22 17° 268° (W) 13:10:12 145.980
POLYITAN 1 01 May 13:05:03 13:07:37 15° 268° (W) 13:10:13 437.675
POPSAT HIP 1 01 May 13:08:16 13:10:41 15° 269° (W) 13:13:08 437.405
TISAT 1 01 May 13:11:58 13:13:51 13° 90° (E) 13:15:43 437.305
QB50P1 01 May 13:12:03 13:14:09 13° 270° (W) 13:16:14 145.935-145.965
VELOX 1 01 May 13:21:00 13:25:24 58° 287° (WNW) 13:29:47 145.980
DX 1 01 May 13:23:30 13:27:51 61° 287° (WNW) 13:32:10 434.975-435.025
ISS 01 May 13:26:09 13:29:04 29° 20° (NNE) 13:31:59 145.825
JAS-2 01 May 13:27:53 13:33:46 86° 75° (ENE) 13:40:33 435.910
UKube-1 01 May 13:32:59 13:37:16 58° 287° (WNW) 13:41:31 .
AO-85 01 May 13:40:19 13:45:44 68° 120° (ESE) 13:51:07 145.980
PHONESAT 2.4 01 May 13:45:44 13:48:49 53° 182° (S) 13:51:54 2401.200-2431.200
50 SAT 01 May 13:48:50 13:51:27 19° 293° (WNW) 13:54:03 437.505
ITAMSAT 1 01 May 13:49:02 13:52:24 18° 60° (ENE) 13:55:46 435.822/435.867
Gurwin Techsat 1B 01 May 13:53:08 13:58:05 42° 69° (ENE) 14:03:05 435.225
AISAT 01 May 13:53:23 13:57:09 27° 293° (WNW) 14:00:53 437.250
Cosmos 2499 01 May 13:59:45 14:07:05 51° 269° (W) 14:14:57 435.465 / 435.565
SPROUT 01 May 14:05:57 14:10:06 47° 288° (WNW) 14:14:12 437.525
SWISSCUBE 01 May 14:06:16 14:07:13 10° 88° (E) 14:08:09 437.505
ESTCUBE 1 01 May 14:06:18 14:09:10 17° 297° (WNW) 14:12:01 437.505/2401.250
Oscar 19 01 May 14:11:05 14:16:10 58° 259° (W) 14:21:18 437.125/150
AO-7 01 May 14:18:19 14:24:42 26° 52° (NE) 14:31:06 29.400- 29.500
CUBEBUG 1 01 May 14:36:32 14:38:01 11° 300° (WNW) 14:39:30 437.445
BEESAT 01 May 14:37:24 14:41:00 21° 93° (E) 14:44:34 436.000
TISAT 1 01 May 14:45:42 14:49:53 58° 286° (WNW) 14:54:00 437.305
GONETS M04 01 May 14:50:21 14:54:50 15° 286° (WNW) 14:59:19
ISS 01 May 15:02:29 15:05:41 52° 217° (SW) 15:08:51 145.825
O/OREOS (USA 219) 01 May 15:09:27 15:13:33 33° 105° (ESE) 15:17:40 437.305
SO-50 01 May 15:11:06 15:14:11 17° 36° (NE) 15:17:13 436.795
JAS-2 01 May 15:16:41 15:19:55 15° 276° (W) 15:23:22 435.910
AO-85 01 May 15:22:16 15:26:43 25° 319° (NW) 15:31:05 145.980
PHONESAT 2.4 01 May 15:22:37 15:25:25 29° 199° (SSW) 15:28:13 2401.200-2431.200
ITAMSAT 1 01 May 15:26:12 15:31:21 66° 258° (WSW) 15:36:31 435.822/435.867
ITUPSAT 1 01 May 15:30:34 15:35:21 69° 103° (ESE) 15:40:05 437.325
Gurwin Techsat 1B 01 May 15:33:48 15:38:11 26° 266° (W) 15:42:36 435.225
SWISSCUBE 01 May 15:40:50 15:45:37 84° 285° (WNW) 15:50:23 437.505
CUSAT 1 01 May 15:47:35 15:50:49 50° 94° (E) 15:55:02 437.405
HORYU 2 01 May 15:56:28 15:59:33 19° 64° (ENE) 16:02:39 437.375
PCSat 01 May 15:58:01 16:02:53 35° 111° (ESE) 16:07:47 145.827
AO-7 01 May 16:08:19 16:16:37 82° 253° (WSW) 16:24:58 29.400- 29.500
BEESAT 01 May 16:14:28 16:18:58 43° 290° (WNW) 16:23:27 436.000
DANDE 01 May 16:17:48 16:20:23 34° 92° (E) 16:23:32 436.750
NOAA 18 01 May 16:47:53 16:50:36 14° 56° (NE) 16:53:18 137.9125
O/OREOS (USA 219) 01 May 16:49:02 16:52:58 27° 303° (WNW) 16:56:55 437.305
SO-50 01 May 16:50:37 16:55:24 89° 69° (ENE) 16:59:59 436.795
MOZHAYETS 4 01 May 16:57:52 17:02:19 49° 99° (E) 17:06:44
KKS-1 01 May 17:05:10 17:09:40 90° 196° (SSW) 17:14:07 437.445
ITUPSAT 1 01 May 17:09:58 17:12:37 15° 300° (WNW) 17:15:15 437.325
BRITE-PL 01 May 17:14:47 17:17:05 13° 57° (ENE) 17:19:27 437.365/2234.400
SWISSCUBE 01 May 17:21:35 17:22:38 11° 302° (WNW) 17:23:41 437.505
STARS 01 May 17:25:41 17:30:08 79° 104° (ESE) 17:34:31 437.465
Cubesat XI-IV 01 May 17:29:27 17:33:26 22° 62° (ENE) 17:37:25 437.490
HORYU 2 01 May 17:31:27 17:35:46 47° 260° (W) 17:40:06 437.375
NOAA 15 01 May 17:31:44 17:36:23 33° 66° (ENE) 17:41:04 137.62
CUSAT 1 01 May 17:32:32 17:33:47 11° 303° (WNW) 17:35:07 437.405
PCSat 01 May 17:41:14 17:46:14 37° 309° (NW) 17:51:17 145.827
Cosmos 2491 01 May 17:59:07 18:07:36 48° 74° (ENE) 18:16:00 435.465 / 435.565
M-CUBED/EXP-1 PRIME 01 May 18:00:15 18:03:54 23° 60° (ENE) 18:07:30 437.505
AO-7 01 May 18:05:49 18:10:35 16° 271° (W) 18:15:22 29.400- 29.500
HO-68 01 May 18:13:36 18:15:53 12° 47° (NE) 18:18:10 435.675
LilacSat-2 01 May 18:14:15 18:17:52 38° 72° (ENE) 18:21:29 437.200
YUBILEINY 01 May 18:14:38 18:21:05 24° 80° (E) 18:27:30 435.215
AUBIESAT-1 01 May 18:19:47 18:23:44 28° 62° (ENE) 18:27:37 437.475
CUTE-I 01 May 18:23:49 18:29:04 63° 72° (ENE) 18:34:20 437.470
NOAA 18 01 May 18:24:55 18:30:27 87° 73° (ENE) 18:35:59 137.9125
GOMX 1 01 May 18:30:54 18:35:23 34° 67° (ENE) 18:40:09 467.674
SO-50 01 May 18:34:05 18:35:04 11° 254° (WSW) 18:36:02 436.795
DOVE 4 01 May 18:34:44 18:38:28 21° 63° (ENE) 18:42:16 437.250
MOZHAYETS 4 01 May 18:36:00 18:39:06 18° 296° (WNW) 18:42:13
CUBESAT XI-V 01 May 18:39:02 18:43:43 64° 101° (E) 18:48:23 437.345
KKS-1 01 May 18:44:40 18:45:30 10° 301° (WNW) 18:46:20 437.445
BRITE-PL 01 May 18:49:55 18:54:41 85° 257° (WSW) 18:59:55 437.365/2234.400
STARS 01 May 19:04:18 19:05:51 12° 300° (WNW) 19:07:22 437.465
Cubesat XI-IV 01 May 19:07:54 19:13:06 54° 259° (W) 19:18:21 437.490
NOAA 15 01 May 19:11:23 19:16:06 33° 263° (W) 19:20:53 137.62
STRAND 1 01 May 19:25:39 19:29:05 18° 92° (E) 19:32:31 437.568
CINEMA 3 01 May 19:27:41 19:31:28 22° 65° (ENE) 19:35:15 145.822/145.860
M-CUBED/EXP-1 PRIME 01 May 19:33:35 19:38:07 47° 256° (WSW) 19:42:40 437.505
BEESAT 3 01 May 19:43:04 19:47:01 77° 306° (NW) 19:50:59 437.485
CANX-2 01 May 19:47:08 19:50:48 30° 69° (ENE) 19:54:29 2200.000
BEESAT 2 01 May 19:47:50 19:51:48 70° 120° (ESE) 19:55:47 435.950
LilacSat-2 01 May 19:49:53 19:52:20 16° 268° (W) 19:54:47 437.200
AUBIESAT-1 01 May 19:53:47 19:58:03 35° 258° (WSW) 20:02:16 437.475
AAUSAT CUBESAT 2 01 May 19:53:56 19:56:00 14° 63° (ENE) 19:58:04 437.432
HO-68 01 May 19:55:08 20:02:04 55° 67° (ENE) 20:09:01 435.675
Cosmos 2491 01 May 19:56:19 20:04:14 39° 274° (W) 20:12:07 435.465 / 435.565
CUTE-I 01 May 20:06:08 20:09:33 17° 269° (W) 20:13:00 437.470
YUBILEINY 01 May 20:08:12 20:16:56 75° 280° (W) 20:25:41 435.215
GOMX 1 01 May 20:09:02 20:13:26 31° 266° (W) 20:18:08 467.674
NOAA 18 01 May 20:09:28 20:11:47 13° 271° (W) 20:14:07 137.9125
DOVE 4 01 May 20:10:42 20:15:40 57° 261° (W) 20:20:52 437.250
CUBESAT XI-V 01 May 20:17:53 20:20:35 15° 298° (WNW) 20:23:17 437.345
UWE-3 01 May 20:19:36 20:22:29 17° 63° (ENE) 20:25:20 435.000/436.395/437.385
CUTE 1.7 + AOD 2 01 May 20:19:37 20:23:46 59° 74° (ENE) 20:27:55 437.475
RS-15 01 May 20:21:46 20:27:19 15° 94° (E) 20:32:58 29.354- 29.394
CUBEBUG 2 01 May 20:23:18 20:27:08 25° 67° (ENE) 20:30:56 437.445
AO-85 01 May 20:32:40 20:35:25 15° 32° (NNE) 20:38:02 145.980
Cosmos 2504 01 May 20:35:50 20:42:39 45° 89° (E) 20:49:21 435.465 / 435.565
PRISM 01 May 20:38:06 20:40:53 17° 93° (E) 20:43:39 437.425
SEEDS 01 May 20:49:08 20:53:18 88° 256° (WSW) 20:57:30 437.485
ZACube-1 01 May 20:52:19 20:55:53 23° 67° (ENE) 20:59:25 437.345
COMPASS 1 01 May 20:54:49 20:58:57 78° 76° (ENE) 21:03:05 437.405
CINEMA 3 01 May 21:03:23 21:08:14 49° 261° (W) 21:13:07 145.822/145.860
STRAND 1 01 May 21:03:37 21:08:38 57° 288° (WNW) 21:13:37 437.568
AIST 2 01 May 21:09:35 21:13:23 36° 116° (ESE) 21:17:12 435.215
DELFI C3 01 May 21:16:28 21:19:26 21° 67° (ENE) 21:22:24 145.870
CANX-2 01 May 21:23:13 21:26:40 24° 266° (W) 21:30:08 2200.000
BEESAT 3 01 May 21:23:58 21:25:25 12° 324° (NW) 21:26:51 437.485
AAUSAT CUBESAT 2 01 May 21:27:00 21:31:02 56° 260° (W) 21:35:06 437.432
BEESAT 2 01 May 21:27:40 21:30:06 15° 320° (NW) 21:32:34 435.950
Oscar 11 01 May 21:36:03 21:40:20 74° 76° (ENE) 21:44:40 145.826/435.025
HO-68 01 May 21:43:59 21:50:05 30° 265° (W) 21:56:13 435.675
FUNcube-1 01 May 21:45:42 21:50:14 77° 76° (ENE) 21:54:42 145.935
UWE-3 01 May 21:53:55 21:58:30 57° 260° (W) 22:03:03 435.000/436.395/437.385
CUTE 1.7 + AOD 2 01 May 21:58:15 22:00:00 12° 270° (W) 22:01:43 437.475
CUBEBUG 2 01 May 21:59:11 22:03:34 37° 263° (W) 22:07:56 437.445
HUMSAT D 01 May 22:05:38 22:09:27 34° 70° (ENE) 22:13:15 437.325/437.525
YUBILEINY 01 May 22:10:22 22:15:25 16° 302° (WNW) 22:20:29 435.215
AO-85 01 May 22:12:03 22:16:54 71° 54° (NE) 22:21:17 145.980
PRISM 01 May 22:12:27 22:16:23 41° 289° (WNW) 22:20:19 437.425
RS-15 01 May 22:26:06 22:37:13 69° 116° (ESE) 22:48:59 29.354- 29.394
ZACube-1 01 May 22:27:46 22:31:58 36° 263° (W) 22:36:08 437.345
Cosmos 2504 01 May 22:29:42 22:36:09 33° 289° (WNW) 22:42:32 435.465 / 435.565
TIGRISAT 01 May 22:37:29 22:39:57 15° 91° (E) 22:42:22 435.000
VELOX 1 01 May 22:44:43 22:47:16 15° 62° (ENE) 22:49:49 145.980
DX 1 01 May 22:45:56 22:48:12 14° 61° (ENE) 22:50:28 434.975-435.025
AIST 2 01 May 22:48:29 22:51:57 25° 315° (NW) 22:55:27 435.215
DELFI C3 01 May 22:50:37 22:54:08 31° 263° (W) 22:57:41 145.870
UKube-1 01 May 22:54:33 22:56:47 14° 61° (ENE) 22:59:02 .
50 SAT 01 May 22:54:59 22:57:23 17° 66° (ENE) 22:59:48 437.505
ANTELSAT 01 May 23:00:48 23:04:32 28° 95° (E) 23:08:12 437.575/2403.000
AISAT 01 May 23:15:00 23:18:56 31° 68° (ENE) 23:22:52 437.250
Oscar 11 01 May 23:16:26 23:16:59 10° 272° (W) 23:17:31 145.826/435.025
FUNcube-1 01 May 23:26:01 23:26:57 11° 271° (W) 23:27:54 145.935
SPROUT 01 May 23:26:17 23:28:44 15° 63° (ENE) 23:31:11 437.525
ESTCUBE 1 01 May 23:28:33 23:32:55 55° 73° (ENE) 23:37:19 437.505/2401.250
O/OREOS (USA 219) 01 May 23:41:53 23:42:21 10° 46° (NE) 23:42:48 437.305
HUMSAT D 01 May 23:41:55 23:45:10 21° 266° (W) 23:48:23 437.325/437.525
NANOSAT C BR1 01 May 23:53:54 23:57:01 20° 93° (E) 00:00:06 145.865
CUBEBUG 1 01 May 23:54:25 23:58:47 74° 74° (ENE) 00:03:12 437.445
AO-85 01 May 23:54:25 23:56:36 13° 254° (WSW) 23:58:43 145.980
UNISAT 6 01 May 23:54:42 23:59:04 75° 285° (WNW) 00:03:19 437.425
GONETS M04 01 May 23:58:18 00:05:07 26° 80° (E) 00:11:56
AIST 1 01 May 23:58:23 00:00:13 13° 84° (E) 00:02:05
TISAT 1 02 May 00:05:16 00:06:56 12° 61° (ENE) 00:08:36 437.305
TIGRISAT 02 May 00:12:45 00:16:58 50° 287° (WNW) 00:21:05 435.000
VELOX 1 02 May 00:18:53 00:23:15 59° 259° (W) 00:27:40 145.980
DX 1 02 May 00:19:33 00:23:52 63° 258° (WSW) 00:28:14 434.975-435.025
50 SAT 02 May 00:27:37 00:30:57 33° 262° (W) 00:34:18 437.505
UKube-1 02 May 00:28:03 00:32:20 62° 258° (WSW) 00:36:39 .
JAS-2 02 May 00:37:31 00:41:45 15° 85° (E) 00:45:57 435.910
ANTELSAT 02 May 00:37:32 00:41:12 27° 293° (WNW) 00:44:48 437.575/2403.000
CUSAT 1 02 May 00:38:43 00:40:52 11° 58° (ENE) 00:43:07 437.405
RS-15 02 May 00:39:41 00:50:30 44° 323° (NW) 01:01:54 29.354- 29.394
PCSat 02 May 00:44:31 00:49:32 36° 50° (NE) 00:54:32 145.827
QB50P2 02 May 00:44:51 00:49:07 81° 101° (E) 00:53:21 145.880/145.840
DUCHIFAT 1 02 May 00:46:01 00:50:15 71° 102° (ESE) 00:54:26 145.980
Cosmos 2499 02 May 00:46:54 00:52:12 23° 82° (E) 00:57:30 435.465 / 435.565
POLYITAN 1 02 May 00:47:01 00:51:16 82° 100° (E) 00:55:29 437.675
POPSAT HIP 1 02 May 00:49:54 00:54:10 85° 100° (E) 00:58:23 437.405
AISAT 02 May 00:51:41 00:55:24 26° 265° (W) 00:59:10 437.250
QB50P1 02 May 00:53:14 00:57:31 86° 280° (W) 01:01:44 145.935-145.965
SPROUT 02 May 00:59:59 01:04:14 56° 260° (W) 01:08:30 437.525
ITUPSAT 1 02 May 01:04:17 01:05:43 11° 58° (ENE) 01:07:09 437.325
ESTCUBE 1 02 May 01:07:33 01:10:05 15° 269° (W) 01:12:36 437.505/2401.250
SWISSCUBE 02 May 01:12:47 01:15:32 15° 61° (ENE) 01:18:17 437.505
O/OREOS (USA 219) 02 May 01:18:03 01:22:36 75° 67° (ENE) 01:27:05 437.305
NANOSAT C BR1 02 May 01:28:58 01:32:53 36° 290° (WNW) 01:36:44 145.865
BUGSAT 1 02 May 01:32:22 01:36:35 72° 285° (WNW) 01:40:42 437.445
AIST 1 02 May 01:33:02 01:37:16 56° 281° (W) 01:41:35
CUBEBUG 1 02 May 01:34:39 01:35:35 11° 272° (W) 01:36:31 437.445
TISAT 1 02 May 01:37:46 01:42:00 71° 258° (WSW) 01:46:17 437.305
BEESAT 02 May 01:44:37 01:48:36 27° 66° (ENE) 01:52:37 436.000
GONETS M04 02 May 01:52:16 02:01:06 71° 281° (W) 02:09:57
Gurwin Techsat 1B 02 May 02:09:38 02:12:38 15° 90° (E) 02:15:37 435.225
CUSAT 1 02 May 02:17:18 02:24:15 56° 76° (ENE) 02:32:06 437.405
JAS-2 02 May 02:20:00 02:27:49 76° 103° (ESE) 02:35:39 435.910
Oscar 19 02 May 02:21:38 02:26:40 46° 99° (E) 02:31:38 437.125/150
QB50P2 02 May 02:23:23 02:24:17 11° 300° (WNW) 02:25:12 145.880/145.840
BEESAT 3 02 May 02:23:36 02:25:13 12° 37° (NE) 02:26:49 437.485
DUCHIFAT 1 02 May 02:23:50 02:25:22 12° 299° (WNW) 02:26:53 145.980
POLYITAN 1 02 May 02:25:41 02:26:25 10° 300° (WNW) 02:27:09 437.675
PCSat 02 May 02:28:00 02:32:55 36° 249° (WSW) 02:37:48 145.827
KKS-1 02 May 02:31:20 02:32:21 11° 59° (ENE) 02:33:22 437.445
Cosmos 2499 02 May 02:37:41 02:44:40 61° 282° (WNW) 02:51:43 435.465 / 435.565
ITUPSAT 1 02 May 02:38:02 02:42:48 88° 80° (E) 02:47:36 437.325
SWISSCUBE 02 May 02:48:05 02:52:48 66° 258° (WSW) 02:57:33 437.505
DANDE 02 May 02:50:51 02:57:04 50° 76° (ENE) 03:04:41 436.750
RS-15 02 May 02:57:52 03:07:17 26° 356° (N) 03:16:58 29.354- 29.394
O/OREOS (USA 219) 02 May 03:00:10 03:01:19 11° 263° (W) 03:02:27 437.305
BEESAT 02 May 03:21:58 03:26:16 34° 263° (W) 03:30:36 436.000
ITAMSAT 1 02 May 03:38:08 03:43:01 40° 98° (E) 03:47:53 435.822/435.867
Gurwin Techsat 1B 02 May 03:47:48 03:53:07 71° 286° (WNW) 03:58:23 435.225
GONETS M04 02 May 03:54:55 03:59:45 15° 304° (WNW) 04:04:36
BEESAT 3 02 May 03:59:37 04:03:35 82° 54° (NE) 04:07:31 437.485
CUSAT 1 02 May 03:59:54 04:06:10 33° 271° (W) 04:13:03 437.405
MOZHAYETS 4 02 May 04:00:25 04:04:51 52° 72° (ENE) 04:09:17
Oscar 19 02 May 04:01:35 04:05:40 24° 297° (WNW) 04:09:45 437.125/150
KKS-1 02 May 04:03:43 04:08:13 89° 271° (W) 04:12:44 437.445
BEESAT 2 02 May 04:05:09 04:09:06 55° 54° (NE) 04:12:59 435.950
JAS-2 02 May 04:05:59 04:12:05 27° 301° (WNW) 04:18:17 435.910
AO-7 02 May 04:09:18 04:16:34 32° 96° (E) 04:23:48 29.400- 29.500
STARS 02 May 04:22:50 04:27:15 77° 75° (ENE) 04:31:43 437.465
YUBILEINY 02 May 04:23:53 04:26:46 12° 53° (NE) 04:29:38 435.215
DANDE 02 May 04:34:03 04:39:48 33° 268° (W) 04:46:35 436.750
RS-15 02 May 05:13:40 05:24:39 37° 31° (NNE) 05:35:45 29.354- 29.394
ITAMSAT 1 02 May 05:18:00 05:22:18 27° 295° (WNW) 05:26:35 435.822/435.867
HORYU 2 02 May 05:21:36 05:25:28 29° 96° (E) 05:29:18 437.375
AIST 2 02 May 05:29:54 05:33:42 34° 48° (NE) 05:37:29 435.215
Gurwin Techsat 1B 02 May 05:31:01 05:32:06 11° 305° (NW) 05:33:11 435.225
MOZHAYETS 4 02 May 05:39:27 05:42:19 16° 269° (W) 05:45:11
CUBESAT XI-V 02 May 05:43:01 05:47:35 68° 74° (ENE) 05:52:11 437.345
BEESAT 2 02 May 05:44:23 05:46:30 14° 250° (WSW) 05:48:36 435.950
NOAA 15 02 May 05:48:35 05:49:35 10° 87° (E) 05:50:34 137.62
AO-7 02 May 06:01:36 06:09:44 60° 295° (WNW) 06:17:52 29.400- 29.500
STARS 02 May 06:03:30 06:04:09 10° 271° (W) 06:04:47 437.465
YUBILEINY 02 May 06:17:13 06:25:49 58° 77° (ENE) 06:34:21 435.215
Cosmos 2504 02 May 06:26:52 06:31:34 17° 62° (ENE) 06:36:24 435.465 / 435.565
GOMX 1 02 May 06:34:54 06:35:42 10° 84° (E) 06:36:29 467.674
CUTE-I 02 May 06:40:34 06:44:44 23° 93° (E) 06:48:54 437.470
STRAND 1 02 May 06:42:09 06:46:30 29° 66° (ENE) 06:50:51 437.568
NOAA 18 02 May 06:46:22 06:51:18 33° 97° (E) 06:56:11 137.9125
BRITE-PL 02 May 06:53:39 06:58:49 34° 95° (E) 07:03:53 437.365/2234.400
HORYU 2 02 May 06:58:12 07:01:57 28° 293° (WNW) 07:05:41 437.375
Cosmos 2491 02 May 07:01:05 07:09:33 54° 90° (E) 07:18:03 435.465 / 435.565
SO-50 02 May 07:06:03 07:09:59 25° 112° (ESE) 07:13:57 436.795
AIST 2 02 May 07:08:37 07:12:04 25° 246° (WSW) 07:15:29 435.215
LilacSat-2 02 May 07:20:46 07:24:30 50° 100° (E) 07:28:10 437.200
CUBESAT XI-V 02 May 07:23:31 07:25:27 12° 271° (W) 07:27:24 437.345
Cubesat XI-IV 02 May 07:24:00 07:29:15 56° 101° (E) 07:34:28 437.490
NOAA 15 02 May 07:24:46 07:30:07 85° 105° (ESE) 07:35:27 137.62
RS-15 02 May 07:26:34 07:38:56 90° 59° (ENE) 07:51:18 29.354- 29.394
PRISM 02 May 07:29:13 07:31:32 15° 63° (ENE) 07:33:50 437.425
AUBIESAT-1 02 May 07:33:48 07:35:37 13° 95° (E) 07:37:23 437.475
ISS 02 May 07:42:53 07:45:42 27° 137° (SE) 07:48:31 145.825
AO-7 02 May 07:56:34 08:00:50 15° 316° (NW) 08:05:06 29.400- 29.500
DOVE 4 02 May 08:09:05 08:13:58 41° 97° (E) 08:18:34 437.250
GOMX 1 02 May 08:09:07 08:14:38 81° 102° (ESE) 08:19:54 467.674
YUBILEINY 02 May 08:14:46 08:22:05 32° 277° (W) 08:29:25 435.215
Cosmos 2504 02 May 08:18:24 08:25:59 86° 80° (E) 08:34:08 435.465 / 435.565
CUTE-I 02 May 08:19:56 08:25:02 47° 290° (WNW) 08:30:06 437.470
STRAND 1 02 May 08:20:53 08:25:33 36° 263° (W) 08:30:14 437.568
NOAA 18 02 May 08:27:02 08:31:56 35° 294° (WNW) 08:36:48 137.9125
BRITE-PL 02 May 08:32:02 08:37:13 37° 292° (WNW) 08:42:21 437.365/2234.400
SEEDS 02 May 08:33:30 08:35:47 14° 91° (E) 08:38:05 437.485
COMPASS 1 02 May 08:38:55 08:40:19 11° 89° (E) 08:41:43 437.405
SO-50 02 May 08:45:29 08:50:13 47° 310° (NW) 08:54:59 436.795
M-CUBED/EXP-1 PRIME 02 May 08:47:18 08:51:17 65° 292° (WNW) 08:54:56 437.505
LilacSat-2 02 May 08:56:39 08:58:22 13° 296° (WNW) 09:00:05 437.200
CINEMA 3 02 May 08:57:40 09:02:03 38° 97° (E) 09:06:10 145.822/145.860
Cosmos 2491 02 May 08:58:46 09:06:42 36° 291° (WNW) 09:14:42 435.465 / 435.565
PRISM 02 May 09:02:28 09:06:25 50° 260° (W) 09:10:26 437.425
Cubesat XI-IV 02 May 09:05:00 09:08:54 21° 298° (WNW) 09:12:47 437.490
CANX-2 02 May 09:06:18 09:10:26 51° 99° (E) 09:14:33 2200.000
NOAA 15 02 May 09:06:21 09:09:10 15° 302° (WNW) 09:11:59 137.62
AUBIESAT-1 02 May 09:06:42 09:10:30 46° 294° (WNW) 09:14:00 437.475
AAUSAT CUBESAT 2 02 May 09:08:57 09:12:04 20° 93° (E) 09:15:11 437.432
HO-68 02 May 09:09:07 09:16:06 52° 101° (E) 09:23:02 435.675
ISS 02 May 09:18:55 09:22:03 42° 335° (NNW) 09:25:11 145.825
UNISAT 6 02 May 09:20:21 09:22:19 13° 61° (ENE) 09:24:16 437.425
Oscar 11 02 May 09:24:12 09:26:02 12° 90° (E) 09:27:52 145.826/435.025
FUNcube-1 02 May 09:34:51 09:36:44 13° 90° (E) 09:38:36 145.935
TIGRISAT 02 May 09:36:53 09:39:55 17° 64° (ENE) 09:42:55 435.000
CUTE 1.7 + AOD 2 02 May 09:39:11 09:43:25 77° 284° (WNW) 09:47:38 437.475
RS-15 02 May 09:40:36 09:49:51 26° 259° (W) 09:59:08 29.354- 29.394
UWE-3 02 May 09:43:20 09:46:54 25° 94° (E) 09:50:22 435.000/436.395/437.385
DOVE 4 02 May 09:47:11 09:51:24 26° 295° (WNW) 09:55:27 437.250
GOMX 1 02 May 09:48:47 09:51:57 16° 301° (WNW) 09:55:03 467.674
CUBEBUG 2 02 May 09:49:08 09:53:17 42° 98° (E) 09:57:17 437.445
ANTELSAT 02 May 10:00:11 10:04:13 30° 68° (ENE) 10:08:12 437.575/2403.000
GONETS M04 02 May 10:07:34 10:11:15 13° 54° (NE) 10:14:55
SEEDS 02 May 10:07:44 10:11:48 50° 287° (WNW) 10:15:51 437.485
COMPASS 1 02 May 10:12:10 10:16:17 62° 285° (WNW) 10:20:23 437.405
Cosmos 2504 02 May 10:13:43 10:18:26 18° 280° (W) 10:23:21 435.465 / 435.565
ZACube-1 02 May 10:15:09 10:19:05 38° 98° (E) 10:22:57 437.345
DELFI C3 02 May 10:27:10 10:30:40 28° 96° (E) 10:34:08 145.870
SO-50 02 May 10:30:18 10:31:55 11° 331° (NNW) 10:33:32 436.795
CINEMA 3 02 May 10:35:18 10:38:55 23° 295° (WNW) 10:42:25 145.822/145.860
CANX-2 02 May 10:43:25 10:45:53 15° 296° (WNW) 10:48:20 2200.000
AAUSAT CUBESAT 2 02 May 10:43:53 10:47:39 34° 290° (WNW) 10:51:24 437.432
NANOSAT C BR1 02 May 10:47:19 10:50:12 18° 64° (ENE) 10:53:06 145.865
